[[{"header":{"parameterUnit":"m.s-1","parameterCategory":1,"la1":30.2991,"la2":30.254,"lo1":-89.0895,"lo2":-89.0444,"dy":0.0017,"dx":0.0017,"nx":28,"ny":28,"refTime":"2025-02-05T09:00:00:Z","depth":0,"parameterNumber":2,"parameterNumberName":"U-component_of_WINDS"},"data":[0,0,0,0,0,0,0,0,0,0,0,0,0,0,0,0,0,0,0,0,0,0,0,0,0,0,0,0,0,0,0,0,0,0,0,0,0,0,0,0,0,0,0,0,0,0,0,0,0,0,0,0,0,0,0,0,0,0,-0.5475,-0.5475,0,-0.547,-0.547,-0.547,-0.5449,-0.5448,-0.5448,-0.5447,-0.5444,-0.5444,-0.5445,0,0,0,0,0,0,0,0,0,0,0,0,0,-0.5467,-0.5467,-0.5475,-0.5475,-0.5475,-0.547,-0.547,-0.547,-0.5449,-0.5448,-0.5447,-0.5447,-0.5444,-0.5444,-0.5445,0,0,0,0,0,0,0,0,0,0,0,0,0,-0.5467,-0.5467,-0.5475,-0.5463,-0.5462,-0.547,-0.547,-0.547,-0.5449,-0.5448,-0.5447,-0.5447,-0.5444,-0.5444,-0.5445,-0.5464,0,0,-0.5447,-0.5447,0,0,0,0,0,0,0,0,-0.5467,-0.5467,-0.5465,-0.5464,-0.5463,-0.5459,-0.5466,-0.5468,-0.5449,-0.5454,-0.5447,-0.5446,-0.545,-0.545,-0.5451,-0.5464,-0.5463,-0.5447,-0.5447,-0.5447,-0.5447,0,0,0,0,0,0,0,-0.5467,-0.5467,-0.5473,-0.5465,-0.5464,-0.5459,-0.5458,-0.5466,-0.5456,-0.5454,-0.5452,-0.5452,-0.5449,-0.545,-0.545,-0.5463,-0.5447,-0.5447,-0.5448,-0.5448,-0.5493,-0.5494,0,0,0,0,0,0,-0.5468,-0.5467,-0.5473,-0.5473,-0.5463,-0.546,-0.5459,-0.5461,-0.5456,-0.5455,-0.5452,-0.5451,-0.545,-0.545,-0.545,-0.5473,-0.5447,-0.5448,-0.5448,-0.5492,-0.5493,-0.5494,0,0,0,0,0,0,-0.5468,-0.5469,-0.5473,-0.547,-0.547,-0.5461,-0.5463,-0.5461,-0.5463,-0.5455,-0.5453,-0.5455,-0.5449,-0.5449,-0.5461,-0.5472,-0.5448,-0.5449,-0.5491,-0.5492,-0.5493,-0.5518,0,0,0,0,0,0,-0.5468,-0.5469,-0.5476,-0.547,-0.547,-0.5483,-0.5464,-0.5462,-0.5463,-0.5461,-0.5457,-0.5456,-0.5448,-0.546,-0.5461,-0.5473,-0.5449,-0.549,-0.5492,-0.5493,-0.5516,-0.552,-0.5523,0,0,0,0,0,-0.5468,-0.5483,-0.5476,-0.5477,-0.5478,-0.5484,-0.5484,-0.5475,-0.5464,-0.5472,-0.5467,-0.5456,-0.5471,-0.5461,-0.5463,-0.5475,-0.5489,-0.5491,-0.5493,-0.5514,-0.5519,-0.5523,0,0,0,0,0,0,-0.5491,-0.5482,-0.5474,-0.5488,-0.5487,-0.548,-0.5489,-0.548,-0.5482,-0.548,-0.5468,-0.5468,-0.5481,-0.5479,-0.5468,-0.5493,-0.5478,-0.548,-0.5494,-0.5498,-0.5502,-0.5503,-0.545,0,0,0,0,0,-0.5497,-0.5502,-0.5494,-0.5507,-0.5507,-0.5498,-0.55,-0.5493,-0.5492,-0.5491,-0.5487,-0.5487,-0.5491,-0.5495,-0.5498,-0.5515,-0.5515,-0.5524,-0.5528,-0.5531,-0.5533,-0.5543,-0.5547,-0.55,-0.55,-0.55,0,0,-0.5511,-0.5507,-0.5511,-0.5512,-0.551,-0.5516,-0.5498,-0.5505,-0.551,-0.5492,-0.5503,-0.55,-0.5499,-0.5513,-0.552,-0.5512,-0.5546,-0.5533,-0.5536,-0.5536,-0.5545,-0.555,-0.5554,-0.5501,-0.5501,-0.5501,0,0,-0.554,-0.5536,-0.5547,-0.5546,-0.5543,-0.5537,-0.554,-0.5535,-0.5532,-0.5542,-0.553,-0.5536,-0.5543,-0.5543,-0.5544,-0.5573,-0.5564,-0.5575,-0.5593,-0.5603,-0.5607,-0.561,-0.5622,-0.5626,-0.5577,-0.5577,-0.5577,0,-0.5557,-0.5565,-0.5554,-0.5562,-0.5563,-0.5547,-0.5559,-0.5558,-0.5557,-0.5559,-0.555,-0.556,-0.5558,-0.5573,-0.558,-0.5581,-0.5584,-0.5575,-0.5607,-0.561,-0.5613,-0.5624,-0.5628,-0.5578,-0.5578,-0.5578,-0.5578,0,-0.5588,-0.5594,-0.5603,-0.5602,-0.5604,-0.5614,-0.5604,-0.5608,-0.5601,-0.5596,-0.5607,-0.5604,-0.5607,-0.561,-0.5603,-0.5624,-0.5619,-0.5609,-0.5594,-0.5619,-0.5629,-0.5633,-0.558,-0.558,-0.5579,-0.5579,0,0,-0.5631,-0.5624,-0.5627,-0.5627,-0.5623,-0.5628,-0.5637,-0.564,-0.5644,-0.5644,-0.5652,-0.5659,-0.565,-0.5651,-0.5643,-0.5652,-0.5676,-0.5641,-0.564,-0.5648,-0.5701,-0.5709,-0.5714,-0.567,-0.567,-0.5671,-0.5701,0,-0.5659,-0.5674,-0.5664,-0.5681,-0.5687,-0.5672,-0.568,-0.5679,-0.5675,-0.568,-0.5675,-0.5681,-0.5667,-0.5668,-0.5676,-0.5672,-0.5687,-0.5669,-0.5678,-0.5679,-0.568,-0.5719,-0.5728,-0.5756,-0.5705,-0.5705,-0.5706,0,-0.5694,-0.5695,-0.5712,-0.5708,-0.571,-0.5717,-0.572,-0.5724,-0.5723,-0.5719,-0.5721,-0.5711,-0.5721,-0.5706,-0.5719,-0.5707,-0.571,-0.5709,-0.571,-0.5711,-0.5694,-0.5722,-0.5765,-0.577,-0.5712,-0.5711,-0.5711,0,-0.5725,-0.5731,-0.5742,-0.5742,-0.5737,-0.5743,-0.5741,-0.5739,-0.5742,-0.5743,-0.5745,-0.5748,-0.575,-0.5753,-0.5746,-0.5735,-0.5761,-0.5744,-0.5759,-0.5759,-0.5766,-0.5766,-0.5811,-0.5766,-0.5766,-0.5766,-0.5766,0,-0.5758,-0.577,-0.5756,-0.5763,-0.5776,-0.5765,-0.5778,-0.5775,-0.5773,-0.578,-0.5767,-0.5774,-0.5762,-0.5768,-0.5762,-0.5775,-0.5776,-0.5774,-0.5773,-0.5776,-0.5776,-0.5778,-0.5777,-0.5767,-0.5767,-0.5767,-0.5767,0,-0.5796,-0.5787,-0.5798,-0.5792,-0.5791,-0.5801,-0.5796,-0.5803,-0.5798,-0.5807,-0.5808,-0.58,-0.5807,-0.5799,-0.5804,-0.58,-0.5818,-0.5813,-0.5819,-0.5818,-0.5833,-0.5832,-0.5882,-0.5889,-0.5839,-0.5839,-0.584,0,-0.5818,-0.5826,-0.5821,-0.5824,-0.5823,-0.5829,-0.5831,-0.582,-0.5824,-0.5823,-0.583,-0.5835,-0.5839,-0.585,-0.5845,-0.585,-0.5846,-0.5863,-0.5846,-0.585,-0.5847,-0.5847,-0.5849,-0.5867,-0.5867,-0.5868,-0.5868,0,-0.5858,-0.5854,-0.5857,-0.586,-0.5863,-0.5864,-0.5865,-0.5868,-0.5857,-0.5862,-0.5868,-0.5871,-0.5876,-0.5882,-0.5885,-0.5884,-0.5875,-0.5873,-0.5877,-0.5881,-0.5884,-0.5884,-0.5829,-0.5872,-0.5872,-0.5871,-0.5871,-0.5871,-0.5889,-0.5897,-0.5894,-0.5899,-0.5898,-0.5899,-0.5905,-0.5901,-0.5905,-0.5909,-0.5902,-0.591,-0.591,-0.5913,-0.5913,-0.592,-0.5913,-0.5918,-0.5919,-0.5921,-0.5924,-0.5882,-0.592,-0.592,-0.592,-0.592,-0.592,0,-0.593,-0.5928,-0.5932,-0.5933,-0.5937,-0.5927,-0.5927,-0.5932,-0.5939,-0.5938,-0.5942,-0.595,-0.5955,-0.5951,-0.5956,-0.5962,-0.5958,-0.5964,-0.5964,-0.5964,-0.593,-0.5926,-0.5967,-0.5967,-0.5967,-0.5967,-0.5967,-0.5967,-0.5952,-0.5964,-0.5959,-0.5971,-0.5968,-0.5976,-0.5977,-0.5978,-0.5978,-0.5987,-0.5991,-0.5988,-0.5986,-0.5991,-0.5996,-0.5994,-0.5997,-0.6005,-0.6002,-0.5971,-0.5966,-0.5962,-0.5959,-0.6006,-0.6006,-0.6036,-0.6037,-0.6037]},{"header":{"parameterUnit":"m.s-1","parameterCategory":1,"la1":30.2991,"la2":30.254,"lo1":-89.0895,"lo2":-89.0444,"dy":0.0017,"dx":0.0017,"nx":28,"ny":28,"refTime":"2025-02-05T09:00:00:Z","depth":0,"parameterNumber":3,"parameterNumberName":"V-component_of_WINDS"},"data":[0,0,0,0,0,0,0,0,0,0,0,0,0,0,0,0,0,0,0,0,0,0,0,0,0,0,0,0,0,0,0,0,0,0,0,0,0,0,0,0,0,0,0,0,0,0,0,0,0,0,0,0,0,0,0,0,0,0,0.6631,0.663,0,0.6543,0.6542,0.6541,0.6506,0.6506,0.6506,0.6507,0.6414,0.6411,0.6409,0,0,0,0,0,0,0,0,0,0,0,0,0,0.6765,0.6762,0.6631,0.663,0.6629,0.6544,0.6542,0.6541,0.6506,0.6506,0.6506,0.6507,0.6415,0.6412,0.6409,0,0,0,0,0,0,0,0,0,0,0,0,0,0.6695,0.6762,0.6631,0.6601,0.6597,0.6544,0.6542,0.6541,0.6506,0.6506,0.6506,0.6507,0.6416,0.6412,0.6408,0.6377,0,0,0.6396,0.6394,0,0,0,0,0,0,0,0,0.6699,0.669,0.6607,0.6603,0.6599,0.6536,0.6556,0.6486,0.6506,0.6541,0.6507,0.6507,0.6454,0.6447,0.643,0.6373,0.6369,0.6396,0.6393,0.6391,0.639,0,0,0,0,0,0,0,0.6704,0.6693,0.6596,0.6605,0.6601,0.6591,0.6581,0.6542,0.6496,0.6538,0.6535,0.6525,0.6452,0.6434,0.6427,0.6367,0.6396,0.6392,0.639,0.6388,0.628,0.628,0,0,0,0,0,0,0.6714,0.6698,0.6599,0.6594,0.6651,0.6588,0.6577,0.6556,0.6497,0.6488,0.6525,0.6524,0.644,0.6432,0.6424,0.6383,0.6391,0.6388,0.6385,0.628,0.628,0.6279,0,0,0,0,0,0,0.6717,0.6705,0.6603,0.6645,0.6631,0.6586,0.6561,0.6554,0.6536,0.6487,0.6479,0.6515,0.644,0.643,0.6389,0.638,0.6386,0.6382,0.6281,0.628,0.628,0.6303,0,0,0,0,0,0,0.6721,0.6707,0.6695,0.6645,0.6629,0.657,0.6561,0.6552,0.6529,0.6527,0.6476,0.6467,0.644,0.6395,0.6385,0.6374,0.6379,0.6282,0.6281,0.628,0.6303,0.6303,0.6303,0,0,0,0,0,0.6726,0.6705,0.6695,0.6683,0.6614,0.657,0.656,0.653,0.6529,0.6516,0.6485,0.6469,0.6383,0.6391,0.638,0.6368,0.6282,0.6281,0.628,0.6302,0.6303,0.6303,0,0,0,0,0,0,0.6754,0.6698,0.6686,0.6648,0.6614,0.6564,0.6547,0.6531,0.6496,0.6496,0.6458,0.6447,0.641,0.6384,0.6395,0.6334,0.6331,0.6328,0.6352,0.6352,0.6352,0.6359,0.6376,0,0,0,0,0,0.6756,0.6726,0.6678,0.6649,0.6633,0.6593,0.6573,0.6552,0.6515,0.65,0.6466,0.643,0.6394,0.6372,0.6337,0.6299,0.6287,0.6285,0.6285,0.6285,0.6283,0.626,0.6259,0.6276,0.6276,0.6276,0,0,0.676,0.6725,0.6708,0.6654,0.6625,0.6594,0.6581,0.6549,0.6525,0.6495,0.6455,0.6429,0.6385,0.6346,0.6327,0.6324,0.6275,0.6284,0.6285,0.6282,0.6259,0.6258,0.6256,0.6275,0.6275,0.6275,0,0,0.675,0.6721,0.6694,0.6666,0.6622,0.6596,0.659,0.6542,0.6523,0.6483,0.646,0.643,0.637,0.634,0.6317,0.6297,0.628,0.6286,0.6287,0.6266,0.6265,0.6263,0.6255,0.6253,0.6284,0.6284,0.6284,0,0.676,0.6713,0.6682,0.665,0.6627,0.66,0.6571,0.6545,0.6492,0.6476,0.6473,0.6398,0.6367,0.632,0.6315,0.6297,0.6288,0.6292,0.6268,0.6266,0.6264,0.6256,0.6253,0.6285,0.6285,0.6284,0.6284,0,0.6726,0.6694,0.6677,0.6628,0.6602,0.6573,0.6536,0.6514,0.6496,0.647,0.6428,0.639,0.6347,0.6334,0.6315,0.6284,0.6284,0.6275,0.6271,0.6264,0.6256,0.6253,0.6286,0.6286,0.6285,0.6285,0,0,0.6732,0.6666,0.666,0.6638,0.6588,0.6562,0.6531,0.6489,0.647,0.6435,0.6407,0.6357,0.6349,0.6323,0.63,0.6282,0.6267,0.6275,0.6273,0.6275,0.623,0.6237,0.6234,0.6256,0.6255,0.6255,0.6233,0,0.6715,0.6659,0.6631,0.6586,0.6556,0.6529,0.6502,0.6468,0.6442,0.6412,0.6383,0.6348,0.634,0.6324,0.6305,0.6273,0.6258,0.6274,0.6229,0.6228,0.6241,0.6229,0.6236,0.6218,0.623,0.6229,0.6229,0,0.6689,0.6654,0.6608,0.6562,0.6547,0.6524,0.6483,0.6454,0.6415,0.6398,0.6369,0.6347,0.6312,0.6311,0.6262,0.6274,0.6254,0.6236,0.6234,0.6228,0.6228,0.6223,0.6211,0.6209,0.6224,0.6224,0.6225,0,0.6697,0.6639,0.6604,0.6585,0.653,0.6514,0.649,0.6451,0.6428,0.6392,0.6377,0.6337,0.6315,0.6284,0.6252,0.6254,0.6206,0.6202,0.619,0.6191,0.6181,0.6182,0.6165,0.6168,0.6168,0.6168,0.6168,0,0.6682,0.6654,0.6607,0.6585,0.6553,0.6519,0.6488,0.6462,0.6428,0.64,0.6374,0.6348,0.6307,0.6276,0.625,0.6213,0.6203,0.6188,0.6181,0.619,0.6192,0.6176,0.6176,0.6168,0.6168,0.6168,0.6168,0,0.6686,0.6653,0.6612,0.6564,0.6551,0.653,0.6488,0.6465,0.6439,0.6403,0.6393,0.6351,0.6312,0.6277,0.6226,0.6209,0.6171,0.6163,0.6185,0.6181,0.6171,0.6172,0.6143,0.6138,0.6145,0.6145,0.6145,0,0.6678,0.6656,0.6606,0.6585,0.6563,0.653,0.6507,0.6473,0.6449,0.6402,0.6385,0.6345,0.6311,0.6251,0.6215,0.6176,0.6166,0.6159,0.616,0.6169,0.6165,0.6167,0.6164,0.6159,0.6159,0.6159,0.6159,0,0.6667,0.6652,0.662,0.6581,0.6554,0.6522,0.6489,0.6474,0.6433,0.6408,0.6369,0.6343,0.6291,0.6251,0.6208,0.6182,0.6163,0.6159,0.6154,0.6163,0.6176,0.6168,0.6186,0.616,0.616,0.616,0.616,0.616,0.6665,0.6644,0.6605,0.657,0.6542,0.6511,0.6488,0.6458,0.6426,0.6381,0.6363,0.6323,0.6284,0.6224,0.6198,0.6166,0.6162,0.6155,0.6153,0.6152,0.6153,0.6182,0.6158,0.6158,0.6158,0.6158,0.6158,0,0.6652,0.6626,0.6594,0.6549,0.6521,0.6507,0.647,0.6447,0.6413,0.6378,0.6346,0.63,0.6262,0.6223,0.6182,0.6164,0.6154,0.6154,0.6155,0.6149,0.6159,0.6167,0.6162,0.6162,0.6162,0.6162,0.6162,0.6162,0.6643,0.6607,0.6587,0.6537,0.6511,0.6472,0.6452,0.6424,0.6396,0.6347,0.6315,0.6291,0.6254,0.621,0.6174,0.6163,0.6149,0.6151,0.6138,0.6148,0.6148,0.6148,0.6156,0.6149,0.6149,0.6131,0.6131,0.6131]}]]